RYR63LN LOWW-LIPZ

Flight info

Callsign RYR63LN
Flight time 0h 51m
Altitude 30000
Route RUPET DCT GRZ DCT RADLY/N0444F340 DCT RIFEN/N0441F330 DCT BADOP/N0369F190 P125 TULIK Z71 BASOG
Aircraft A320/M-SDE3FGHIRWY/LB1

Departure

Time 2026-04-20 13:28
Airport Vienna International Airport (LOWW)

Arrival

Time 2026-04-20 14:20
Airport Venice Marco Polo Airport (LIPZ)
Time Latitude Longitude Altitude Speed Heading
2026-04-20 12:36 48.12087 16.55663 616 ft 0 kts 116°
2026-04-20 13:13 48.12089 16.55657 611 ft 3 kts 116°
2026-04-20 13:13 48.12100 16.55622 621 ft 2 kts 116°
2026-04-20 13:14 48.12112 16.55596 627 ft 4 kts 159°
2026-04-20 13:14 48.12134 16.55596 625 ft 3 kts 206°
2026-04-20 13:14 48.12143 16.55602 623 ft 0 kts 206°
2026-04-20 13:21 48.12135 16.55596 625 ft 3 kts 206°
2026-04-20 13:21 48.12106 16.55576 627 ft 5 kts 206°
2026-04-20 13:21 48.12068 16.55548 610 ft 7 kts 206°
2026-04-20 13:22 48.12025 16.55517 619 ft 6 kts 206°
2026-04-20 13:22 48.11976 16.55481 610 ft 10 kts 206°
2026-04-20 13:22 48.11912 16.55439 610 ft 10 kts 192°
2026-04-20 13:22 48.11844 16.55426 610 ft 10 kts 184°
2026-04-20 13:23 48.11794 16.55479 615 ft 9 kts 119°
2026-04-20 13:23 48.11751 16.55609 616 ft 19 kts 116°
2026-04-20 13:23 48.11689 16.55803 612 ft 22 kts 116°
2026-04-20 13:23 48.11615 16.56028 617 ft 26 kts 116°
2026-04-20 13:24 48.11544 16.56246 623 ft 23 kts 116°
2026-04-20 13:24 48.11470 16.56473 618 ft 26 kts 116°
2026-04-20 13:24 48.11389 16.56724 618 ft 27 kts 116°
2026-04-20 13:24 48.11320 16.56935 613 ft 22 kts 116°
2026-04-20 13:25 48.11259 16.57120 619 ft 12 kts 116°
2026-04-20 13:25 48.11223 16.57225 617 ft 10 kts 123°
2026-04-20 13:25 48.11165 16.57224 623 ft 6 kts 206°
2026-04-20 13:25 48.11154 16.57216 613 ft 3 kts 206°
2026-04-20 13:26 48.11117 16.57188 617 ft 7 kts 206°
2026-04-20 13:26 48.11076 16.57158 618 ft 6 kts 206°
2026-04-20 13:26 48.11055 16.57119 613 ft 4 kts 262°
2026-04-20 13:26 48.11062 16.57082 611 ft 3 kts 295°
2026-04-20 13:27 48.11066 16.57071 611 ft 0 kts 296°
2026-04-20 13:27 48.11084 16.57014 619 ft 25 kts 296°
2026-04-20 13:27 48.11277 16.56424 621 ft 97 kts 296°
2026-04-20 13:28 48.11662 16.55240 621 ft 153 kts 296°
2026-04-20 13:28 48.12114 16.53706 1110 ft 161 kts 284°
2026-04-20 13:28 48.11914 16.52049 1880 ft 172 kts 240°
2026-04-20 13:28 48.10995 16.50755 2367 ft 197 kts 223°
2026-04-20 13:29 48.09824 16.49440 2790 ft 223 kts 221°
2026-04-20 13:29 48.08504 16.47991 3349 ft 248 kts 221°
2026-04-20 13:29 48.07089 16.46399 4116 ft 259 kts 223°
2026-04-20 13:29 48.05693 16.44667 5082 ft 262 kts 225°
2026-04-20 13:30 48.04313 16.42873 6045 ft 265 kts 226°
2026-04-20 13:30 48.02923 16.41035 6993 ft 267 kts 226°
2026-04-20 13:30 48.01528 16.39187 7915 ft 269 kts 225°
2026-04-20 13:30 48.00100 16.37358 8861 ft 271 kts 224°
2026-04-20 13:31 47.98637 16.35568 9781 ft 274 kts 223°
2026-04-20 13:31 47.97129 16.33751 10393 ft 288 kts 223°
2026-04-20 13:31 47.95508 16.31799 10672 ft 311 kts 223°
2026-04-20 13:31 47.93784 16.29725 11223 ft 322 kts 223°
2026-04-20 13:32 47.92028 16.27617 11963 ft 326 kts 223°
2026-04-20 13:32 47.90253 16.25484 12746 ft 330 kts 223°
2026-04-20 13:32 47.88459 16.23327 13540 ft 333 kts 223°
2026-04-20 13:32 47.86648 16.21145 14259 ft 336 kts 223°
2026-04-20 13:33 47.84828 16.18950 14962 ft 338 kts 224°
2026-04-20 13:33 47.82992 16.16741 15676 ft 340 kts 224°
2026-04-20 13:33 47.81146 16.14522 16392 ft 342 kts 224°
2026-04-20 13:33 47.79311 16.12321 17087 ft 344 kts 224°
2026-04-20 13:34 47.77445 16.10080 17792 ft 346 kts 224°
2026-04-20 13:34 47.75567 16.07825 18464 ft 348 kts 224°
2026-04-20 13:34 47.73629 16.05650 19066 ft 354 kts 217°
2026-04-20 13:34 47.71450 16.03872 19651 ft 359 kts 214°
2026-04-20 13:35 47.69242 16.02116 20245 ft 362 kts 214°
2026-04-20 13:35 47.67014 16.00358 20828 ft 365 kts 214°
2026-04-20 13:35 47.64760 15.98584 21412 ft 368 kts 215°
2026-04-20 13:35 47.62488 15.96801 21999 ft 371 kts 215°
2026-04-20 13:36 47.60197 15.95005 22559 ft 374 kts 215°
2026-04-20 13:36 47.57886 15.93197 23082 ft 377 kts 215°
2026-04-20 13:36 47.55558 15.91378 23566 ft 380 kts 216°
2026-04-20 13:36 47.53212 15.89542 23967 ft 383 kts 216°
2026-04-20 13:37 47.50854 15.87695 24415 ft 385 kts 216°
2026-04-20 13:37 47.48472 15.85829 24822 ft 388 kts 217°
2026-04-20 13:37 47.46078 15.83956 25225 ft 391 kts 217°
2026-04-20 13:37 47.43918 15.82272 25576 ft 393 kts 217°
2026-04-20 13:38 47.41490 15.80383 25968 ft 396 kts 217°
2026-04-20 13:38 47.39051 15.78486 26336 ft 398 kts 217°
2026-04-20 13:38 47.36595 15.76573 26678 ft 400 kts 218°
2026-04-20 13:38 47.34127 15.74652 27034 ft 403 kts 218°
2026-04-20 13:39 47.31639 15.72723 27375 ft 406 kts 218°
2026-04-20 13:39 47.29128 15.70779 27761 ft 409 kts 218°
2026-04-20 13:39 47.26604 15.68824 28168 ft 411 kts 219°
2026-04-20 13:39 47.24068 15.66859 28457 ft 413 kts 219°
2026-04-20 13:40 47.21513 15.64884 28737 ft 416 kts 219°
2026-04-20 13:40 47.18949 15.62908 29050 ft 418 kts 219°
2026-04-20 13:40 47.16361 15.60916 29359 ft 420 kts 219°
2026-04-20 13:40 47.13762 15.58915 29656 ft 423 kts 219°
2026-04-20 13:41 47.11151 15.56905 29935 ft 425 kts 219°
2026-04-20 13:41 47.05972 15.52954 30024 ft 410 kts 219°
2026-04-20 13:42 47.00948 15.49120 30025 ft 406 kts 220°
2026-04-20 13:42 46.93455 15.43365 30025 ft 405 kts 220°
2026-04-20 13:43 46.88520 15.39487 30027 ft 405 kts 220°
2026-04-20 13:43 46.83556 15.35579 30012 ft 406 kts 219°
2026-04-20 13:44 46.78575 15.31684 30004 ft 406 kts 219°
2026-04-20 13:44 46.73593 15.27813 29993 ft 406 kts 219°
2026-04-20 13:45 46.68598 15.23953 29986 ft 407 kts 219°
2026-04-20 13:45 46.66205 15.21852 29979 ft 396 kts 227°
2026-04-20 13:45 46.64153 15.19272 29977 ft 384 kts 236°
2026-04-20 13:46 46.62480 15.16321 29971 ft 373 kts 244°
2026-04-20 13:46 46.61007 15.13214 29973 ft 374 kts 244°
2026-04-20 13:46 46.58034 15.06994 29965 ft 375 kts 244°
2026-04-20 13:47 46.55044 15.00771 29961 ft 376 kts 244°
2026-04-20 13:47 46.52040 14.94537 29958 ft 377 kts 244°
2026-04-20 13:48 46.49027 14.88297 29951 ft 378 kts 244°
2026-04-20 13:48 46.46027 14.82094 29957 ft 379 kts 243°
2026-04-20 13:49 46.42998 14.75844 29948 ft 380 kts 243°
2026-04-20 13:49 46.40112 14.69896 29946 ft 382 kts 243°
2026-04-20 13:50 46.37054 14.63624 29945 ft 381 kts 243°
2026-04-20 13:50 46.33986 14.57344 29956 ft 384 kts 243°
2026-04-20 13:51 46.30905 14.51029 29944 ft 383 kts 243°
2026-04-20 13:51 46.27831 14.44737 29945 ft 383 kts 243°
2026-04-20 13:52 46.24748 14.38454 29943 ft 383 kts 243°
2026-04-20 13:52 46.21663 14.32193 29943 ft 383 kts 243°
2026-04-20 13:53 46.18581 14.25956 29950 ft 384 kts 243°
2026-04-20 13:53 46.15461 14.19640 29949 ft 384 kts 243°
2026-04-20 13:54 46.12371 14.13411 29949 ft 385 kts 242°
2026-04-20 13:54 46.09261 14.07150 29951 ft 385 kts 242°
2026-04-20 13:55 46.06199 14.00999 29950 ft 384 kts 242°
2026-04-20 13:55 46.03085 13.94749 29949 ft 385 kts 242°
2026-04-20 13:56 45.99965 13.88503 29944 ft 385 kts 242°
2026-04-20 13:56 45.96833 13.82256 29945 ft 385 kts 242°
2026-04-20 13:57 45.93696 13.76010 29936 ft 385 kts 242°
2026-04-20 13:57 45.90628 13.69760 29933 ft 384 kts 243°
2026-04-20 13:58 45.87592 13.63447 29925 ft 384 kts 243°
2026-04-20 13:58 45.84544 13.57132 29773 ft 386 kts 243°
2026-04-20 13:59 45.83015 13.53981 29483 ft 385 kts 243°
2026-04-20 13:59 45.81489 13.50848 29125 ft 380 kts 243°
2026-04-20 13:59 45.79987 13.47769 28622 ft 374 kts 243°
2026-04-20 13:59 45.78505 13.44735 28124 ft 369 kts 243°
2026-04-20 14:00 45.77042 13.41745 27651 ft 364 kts 243°
2026-04-20 14:00 45.75596 13.38796 27175 ft 360 kts 243°
2026-04-20 14:00 45.74165 13.35877 26715 ft 356 kts 243°
2026-04-20 14:00 45.72755 13.32995 26260 ft 352 kts 243°
2026-04-20 14:01 45.71356 13.30126 25824 ft 349 kts 243°
2026-04-20 14:01 45.70048 13.27451 25414 ft 346 kts 243°
2026-04-20 14:01 45.68673 13.24650 24988 ft 342 kts 243°
2026-04-20 14:01 45.67310 13.21876 24573 ft 339 kts 243°
2026-04-20 14:02 45.65961 13.19141 24166 ft 335 kts 243°
2026-04-20 14:02 45.64622 13.16429 23762 ft 332 kts 243°
2026-04-20 14:02 45.63298 13.13751 23335 ft 329 kts 243°
2026-04-20 14:02 45.61989 13.11101 22920 ft 324 kts 243°
2026-04-20 14:03 45.60689 13.08470 22518 ft 322 kts 243°
2026-04-20 14:03 45.59400 13.05862 22140 ft 320 kts 242°
2026-04-20 14:03 45.58118 13.03273 21746 ft 318 kts 242°
2026-04-20 14:03 45.56846 13.00702 21358 ft 316 kts 242°
2026-04-20 14:04 45.55582 12.98147 20967 ft 315 kts 242°
2026-04-20 14:04 45.54323 12.95603 20563 ft 313 kts 242°
2026-04-20 14:04 45.53086 12.93110 20173 ft 311 kts 242°
2026-04-20 14:04 45.51838 12.90596 19766 ft 310 kts 241°
2026-04-20 14:05 45.50597 12.88100 19372 ft 308 kts 241°
2026-04-20 14:05 45.49361 12.85615 18970 ft 307 kts 241°
2026-04-20 14:05 45.48127 12.83139 18565 ft 305 kts 241°
2026-04-20 14:05 45.46901 12.80678 18156 ft 304 kts 241°
2026-04-20 14:06 45.45681 12.78232 17734 ft 302 kts 240°
2026-04-20 14:06 45.44467 12.75802 17336 ft 300 kts 240°
2026-04-20 14:06 45.43257 12.73385 16948 ft 298 kts 240°
2026-04-20 14:06 45.42059 12.70989 16565 ft 297 kts 240°
2026-04-20 14:07 45.40861 12.68594 16181 ft 297 kts 240°
2026-04-20 14:07 45.39664 12.66205 15811 ft 296 kts 239°
2026-04-20 14:07 45.38469 12.63825 15438 ft 295 kts 239°
2026-04-20 14:07 45.37278 12.61457 15043 ft 294 kts 239°
2026-04-20 14:08 45.36090 12.59093 14668 ft 294 kts 239°
2026-04-20 14:08 45.35302 12.57526 14419 ft 294 kts 239°
2026-04-20 14:08 45.34114 12.55164 14037 ft 294 kts 238°
2026-04-20 14:08 45.32926 12.52803 13641 ft 294 kts 238°
2026-04-20 14:09 45.31737 12.50449 13231 ft 293 kts 238°
2026-04-20 14:09 45.30549 12.48099 12836 ft 292 kts 238°
2026-04-20 14:09 45.29373 12.45769 12449 ft 290 kts 238°
2026-04-20 14:09 45.28197 12.43437 12055 ft 289 kts 237°
2026-04-20 14:10 45.27028 12.41119 11660 ft 288 kts 237°
2026-04-20 14:10 45.25860 12.38810 11264 ft 287 kts 237°
2026-04-20 14:10 45.24693 12.36510 10871 ft 287 kts 237°
2026-04-20 14:10 45.23530 12.34223 10470 ft 286 kts 237°
2026-04-20 14:11 45.22370 12.31948 10188 ft 281 kts 236°
2026-04-20 14:11 45.21237 12.29725 9937 ft 276 kts 236°
2026-04-20 14:11 45.20161 12.27491 9793 ft 273 kts 243°
2026-04-20 14:11 45.19451 12.25020 9657 ft 270 kts 256°
2026-04-20 14:12 45.19155 12.22378 9105 ft 276 kts 266°
2026-04-20 14:12 45.19022 12.19685 8786 ft 271 kts 266°
2026-04-20 14:12 45.18887 12.17043 8395 ft 264 kts 266°
2026-04-20 14:12 45.18770 12.14528 8090 ft 250 kts 271°
2026-04-20 14:13 45.19122 12.12171 7714 ft 241 kts 294°
2026-04-20 14:13 45.20077 12.10230 7551 ft 248 kts 313°
2026-04-20 14:13 45.21547 12.08907 7011 ft 253 kts 338°
2026-04-20 14:13 45.23222 12.08166 6442 ft 252 kts 340°
2026-04-20 14:14 45.24901 12.07446 5868 ft 251 kts 342°
2026-04-20 14:14 45.26640 12.07166 5350 ft 255 kts
2026-04-20 14:14 45.28318 12.07649 5221 ft 246 kts 18°
2026-04-20 14:14 45.29795 12.08770 5087 ft 238 kts 34°
2026-04-20 14:15 45.31056 12.10266 4828 ft 236 kts 40°
2026-04-20 14:15 45.32267 12.11831 4522 ft 235 kts 40°
2026-04-20 14:15 45.33476 12.13383 4204 ft 234 kts 40°
2026-04-20 14:15 45.34690 12.14932 3888 ft 234 kts 40°
2026-04-20 14:16 45.35903 12.16478 3577 ft 233 kts 41°
2026-04-20 14:16 45.37110 12.18019 3269 ft 232 kts 41°
2026-04-20 14:16 45.38284 12.19518 2955 ft 220 kts 41°
2026-04-20 14:16 45.39389 12.20930 2672 ft 208 kts 41°
2026-04-20 14:17 45.40439 12.22271 2431 ft 196 kts 42°
2026-04-20 14:17 45.41423 12.23530 2152 ft 185 kts 42°
2026-04-20 14:17 45.42354 12.24720 1901 ft 174 kts 43°
2026-04-20 14:17 45.43240 12.25854 1668 ft 167 kts 43°
2026-04-20 14:18 45.44075 12.26924 1448 ft 156 kts 44°
2026-04-20 14:18 45.44854 12.27921 1260 ft 147 kts 45°
2026-04-20 14:18 45.45607 12.28886 1061 ft 144 kts 44°
2026-04-20 14:18 45.46335 12.29820 864 ft 142 kts 44°
2026-04-20 14:19 45.47081 12.30777 671 ft 141 kts 45°
2026-04-20 14:19 45.47814 12.31718 480 ft 141 kts 46°
2026-04-20 14:19 45.48542 12.32650 282 ft 143 kts 45°
2026-04-20 14:19 45.49278 12.33597 102 ft 142 kts 47°
2026-04-20 14:20 45.49986 12.34508 14 ft 123 kts 43°
2026-04-20 14:20 45.50463 12.35126 13 ft 44 kts 41°
2026-04-20 14:20 45.50626 12.35323 14 ft 22 kts 33°
2026-04-20 14:20 45.50739 12.35401 16 ft 10 kts 19°
2026-04-20 14:21 45.50802 12.35425 17 ft 9 kts 13°
2026-04-20 14:21 45.50860 12.35444 16 ft 8 kts 12°
2026-04-20 14:21 45.50909 12.35457 16 ft 6 kts 11°
2026-04-20 14:21 45.50950 12.35453 17 ft 8 kts 339°
2026-04-20 14:22 45.50980 12.35350 17 ft 12 kts 258°
2026-04-20 14:22 45.50962 12.35234 17 ft 12 kts 258°
2026-04-20 14:22 45.50915 12.35150 17 ft 10 kts 222°
2026-04-20 14:22 45.50863 12.35084 16 ft 10 kts 222°
2026-04-20 14:23 45.50816 12.35024 16 ft 9 kts 222°
2026-04-20 14:23 45.50774 12.34970 17 ft 8 kts 222°
2026-04-20 14:23 45.50726 12.34908 16 ft 13 kts 222°
2026-04-20 14:23 45.50644 12.34803 16 ft 16 kts 222°
2026-04-20 14:24 45.50607 12.34705 16 ft 10 kts 264°
2026-04-20 14:24 45.50603 12.34598 16 ft 13 kts 267°
2026-04-20 14:24 45.50598 12.34453 16 ft 14 kts 267°
2026-04-20 14:24 45.50618 12.34357 16 ft 7 kts 285°
2026-04-20 14:25 45.50618 12.34293 16 ft 7 kts 267°
2026-04-20 14:25 45.50616 12.34230 16 ft 1 kts 267°
2026-04-20 14:25 45.50616 12.34223 16 ft 2 kts 267°
2026-04-20 14:25 45.50616 12.34218 16 ft 0 kts 267°